www.pogodaiklimat.ru

Погода и климат >> Архив погоды >> Франция >> Фигари


ПОГОДА в Фигари

  • Прогноз погоды в Фигари
  • Монитор погоды в Фигари

АРХИВ ПОГОДЫ в Фигари

Время (UTC), дата Ветер
(напр.,м/с)
 
Видим.   Явления Облачность Т
(С)
Тd
(С)
f
(%)
Тe
(С)
Тes
(С)
Комфортность P
(гПа)
Po
(гПа)
Тmin
(С)
Tmax
(С)
R
(мм)
R24
(мм)
S
(см)
16 16.08 ЮЗ 5-7
{7}
25 км н/о +27.2 +17.1 54 +31 +31 душно 1014.8 1012.2
17 16.08 ЮЗ 4-6
{7}
19 км н/о +26.1 +17.7 60 +30 +30 душно 1014.7 1012.1
18 16.08 ЮЗ 4-6
{7}
40 км н/о +24.5 +18.2 68 +29 +29 душно 1015.1 1012.4 +24.5 +29.4
19 16.08 ЮЗ 3-5
{5}
50 км н/о +23.2 +18.3 74 +29 +29 душно 1015.8 1013.1
20 16.08 ЮЗ 2-3
{5}
45 км н/о +22.8 +18.8 78 +29 +29 очень
душно
1016.3 1013.6
21 16.08 штиль 0-1
{4}
40 км н/о +20.6 +16.8 79 +24 +24 комфорт 1016.5 1013.8
22 16.08 С 1-1
{1}
35 км н/о +18.5 +15.9 85 +21 +21 комфорт 1016.6 1013.9
23 16.08 СВ 1-1
{1}
30 км н/о +17.4 +15.2 87 +18 +18 1016.8 1014.1
00 17.08 С 1-1
{1}
35 км н/о +16.4 +14.2 87 +18 +18 1016.7 1014.0
01 17.08 СВ 1-1
{1}
27 км н/о +16.0 +14.2 89 +17 +17 1016.3 1013.6
02 17.08 СВ 1-1
{2}
21 км н/о +16.0 +14.4 90 +17 +17 1016.3 1013.6
03 17.08 СВ 1-1
{2}
19 км н/о +16.8 +15.5 92 +18 +18 1016.3 1013.6
04 17.08 З 1-1
{1}
20 км н/о +15.3 +13.8 91 +16 +16 1016.6 1013.9
05 17.08 СВ 1-2
{2}
15 км н/о +15.1 +13.6 91 +16 +16 1016.8 1014.1
06 17.08 штиль 0
{2}
35 км н/о +18.0 +16.0 88 +18 +18 1017.3 1014.6 +14.2 +24.4
07 17.08 З 1-1
{1}
40 км н/о +24.1 +18.3 70 +29 +29 душно 1017.6 1014.9
08 17.08 Ю 2-4
{4}
19 км н/о +27.1 +19.4 63 +33 +33 очень
душно
1017.5 1014.9
09 17.08 Ю 2-4
{4}
35 км н/о +28.0 +19.5 60 +34 +34 очень
душно
1017.7 1015.1
10 17.08 ЮЗ 3-5
{5}
18 км н/о +28.3 +19.5 59 +34 +34 очень
душно
1017.7 1015.1
11 17.08 ЮЗ 3-4
{5}
18 км н/о +29.1 +19.4 56 +35 +35 очень
душно
1017.5 1014.9
12 17.08 ЮЗ 3-5
{5}
35 км н/о +29.6 +19.0 53 +35 +35 очень
душно
1017.2 1014.6
13 17.08 ЮЗ 3-4
{4}
30 км н/о +30.8 +18.5 48 +36 +36 очень
душно
1016.8 1014.2
14 17.08 Ю 2-4
{5}
40 км н/о +31.1 +15.1 38 +33 +33 душно 1016.6 1014.0
15 17.08 Ю 2-4
{4}
35 км н/о +28.2 +17.1 51 +32 +32 душно 1016.5 1013.9
16 17.08 ЮЗ 2-3
{3}
45 км н/о +30.1 +15.4 41 +33 +33 душно 1016.3 1013.7
17 17.08 ЮЗ 2-3
{3}
50 км н/о +28.1 +16.1 48 +31 +31 душно 1016.1 1013.5
18 17.08 Ю 1-2
{3}
60 км н/о +25.6 +16.4 57 +29 +29 душно 1016.1 1013.5 +18.1 +31.2
19 17.08 Ю 1-1
{2}
50 км н/о +22.9 +16.4 67 +28 +28 душно 1016.5 1013.8
20 17.08 СВ 1-1
{1}
50 км н/о +20.8 +15.3 71 +25 +25 комфорт 1016.8 1014.1
21 17.08 СВ 1-1
{1}
45 км н/о +18.4 +14.1 76 +21 +21 комфорт 1016.9 1014.2
22 17.08 СВ 1-1
{1}
45 км н/о +17.5 +13.8 79 +19 +19 1016.9 1014.2
23 17.08 СВ 1-1
{1}
40 км н/о +16.4 +13.5 83 +18 +18 1016.9 1014.2
00 18.08 СВ 1-2
{2}
30 км н/о +15.4 +12.7 84 +16 +16 1016.5 1013.8
01 18.08 СВ 1-1
{1}
26 км н/о +14.8 +12.7 87 +16 +16 1016.6 1013.8
02 18.08 С 1-1
{2}
35 км н/о +14.3 +12.2 87 +15 +15 1016.4 1013.6
03 18.08 СВ 2-2
{2}
35 км н/о +17.0 +16.0 94 +18 +18 1015.9 1013.2
04 18.08 В 2-3
{3}
35 км н/о +20.6 +17.6 83 +25 +25 комфорт 1015.7 1013.0
05 18.08 В 2-3
{3}
35 км н/о +21.0 +17.6 81 +26 +26 душно 1015.9 1013.2
06 18.08 В 2
{6}
45 км н/о +24.0 +18.9 73 +29 +29 душно 1015.9 1013.2 +13.9 +25.6
07 18.08 В 3-5
{5}
35 км н/о +26.6 +19.2 64 +32 +32 очень
душно
1016.0 1013.4
08 18.08 СВ 3-4
{5}
40 км н/о +28.1 +17.9 54 +33 +33 очень
душно
1016.1 1013.5
09 18.08 В 3-4
{5}
45 км н/о +29.8 +15.9 43 +33 +33 душно 1016.4 1013.8
10 18.08 В 2-4
{5}
45 км н/о +30.8 +14.8 38 +33 +33 душно 1016.3 1013.7
11 18.08 СВ 3-5
{5}
55 км н/о +31.6 +11.9 30 +32 +32 жарко 1016.0 1013.4
12 18.08 СВ 3-4
{5}
55 км н/о +32.2 +12.4 30 +33 +33 жарко 1015.7 1013.1
13 18.08 В 2-4
{5}
45 км н/о +32.7 +13.4 31 +34 +34 очень
жарко
1015.4 1012.8
14 18.08 В 3-6
{6}
45 км н/о +32.1 +13.3 32 +33 +33 жарко 1015.1 1012.5
15 18.08 В 2-4
{6}
45 км н/о +32.0 +13.2 32 +33 +33 жарко 1014.9 1012.3
16 18.08 В 3-5
{5}
50 км н/о +30.1 +16.5 44 +33 +33 душно 1014.9 1012.3
17 18.08 В 3-4
{5}
50 км н/о +28.6 +19.2 57 +34 +34 очень
душно
1014.7 1012.1
18 18.08 В 3-5
{5}
55 км н/о +26.3 +20.2 69 +32 +32 очень
душно
1014.8 1012.2 +24.1 +32.9
19 18.08 В 2-3
{4}
50 км н/о +25.0 +20.9 78 +31 +31 очень
душно
1015.1 1012.5
20 18.08 В 2-4
{4}
45 км н/о +24.2 +20.7 81 +30 +30 очень
душно
1015.6 1012.9
21 18.08 В 1-2
{4}
45 км н/о +23.7 +20.2 81 +29 +29 душно 1015.9 1013.2
22 18.08 В 2-3
{3}
40 км н/о +23.2 +20.3 84 +30 +30 очень
душно
1016.0 1013.3
23 18.08 В 2-3
{3}
40 км н/о +23.2 +20.3 84 +30 +30 очень
душно
1015.9 1013.2
00 19.08 В 2-2
{3}
40 км н/о +22.8 +20.1 85 +29 +29 очень
душно
1015.9 1013.2
01 19.08 В 2-3
{3}
40 км н/о +22.1 +19.6 86 +28 +28 душно 1015.7 1013.0
02 19.08 В 1-2
{3}
35 км н/о +21.9 +19.6 87 +27 +27 душно 1015.8 1013.1
03 19.08 В 2-3
{3}
35 км н/о +21.7 +19.6 88 +27 +27 душно 1015.5 1012.8
04 19.08 В 2-3
{3}
35 км н/о +21.9 +19.3 85 +27 +27 душно 1015.3 1012.6
05 19.08 В 2-3
{3}
35 км н/о +21.9 +19.3 85 +27 +27 душно 1015.9 1013.2
06 19.08 В 2
{6}
27 км н/о +24.7 +20.2 76 +30 +30 очень
душно
1015.9 1013.2 +21.3 +26.3
07 19.08 СВ 3-4
{5}
55 км н/о +26.9 +20.5 68 +33 +33 очень
душно
1016.1 1013.5 0.2
08 19.08 В 2-4
{4}
55 км н/о +28.9 +20.4 60 +36 +36 очень
душно
1016.1 1013.5
09 19.08 В 2-4
{4}
40 км н/о +30.3 +19.7 53 +36 +36 очень
душно
1016.5 1013.9 0.2
10 19.08 В 2-4
{4}
35 км н/о +31.2 +19.5 50 +37 +37 очень
душно
1016.6 1014.0
11 19.08 В 2-4
{5}
40 км н/о +31.8 +20.4 51 +39 +39 очень
душно
1016.4 1013.8
12 19.08 В 2-4
{4}
60 км н/о +32.1 +20.4 50 +39 +39 очень
душно
1016.4 1013.8
13 19.08 СВ 2-4
{4}
60 км н/о +32.6 +21.1 51 +40 +40 очень
душно
1016.4 1013.8
14 19.08 СВ 2-4
{5}
55 км н/о +31.9 +20.2 50 +38 +38 очень
душно
1016.4 1013.8
15 19.08 В 3-4
{5}
55 км н/о +31.3 +20.9 54 +39 +39 очень
душно
1016.2 1013.6
16 19.08 В 3-5
{5}
55 км н/о +30.1 +19.5 53 +36 +36 очень
душно
1016.2 1013.6
17 19.08 В 2-4
{5}
55 км н/о +28.8 +19.4 57 +35 +35 очень
душно
1016.2 1013.6
18 19.08 В 2-3
{4}
55 км н/о +27.1 +19.7 64 +33 +33 очень
душно
1016.6 1014.0 +24.8 +32.7
19 19.08 СВ 2-3
{3}
55 км н/о +25.4 +20.9 76 +32 +32 очень
душно
1016.9 1014.3
20 19.08 В 2-3
{3}
45 км н/о +24.6 +21.1 81 +31 +31 очень
душно
1017.3 1014.6
21 19.08 СВ 2-3
{3}
40 км н/о +24.2 +20.9 82 +30 +30 очень
душно
1017.5 1014.8
22 19.08 В 2-3
{3}
35 км н/о +23.8 +20.9 84 +30 +30 очень
душно
1017.6 1014.9
23 19.08 В 1-2
{3}
30 км н/о +23.4 +21.1 87 +31 +31 очень
душно
1017.6 1014.9
00 20.08 В 2-2
{3}
27 км н/о +22.8 +20.9 89 +30 +30 очень
душно
1017.4 1014.7
01 20.08 В 2-2
{2}
26 км н/о +22.6 +20.9 90 +30 +30 очень
душно
1017.0 1014.3
02 20.08 СВ 3-4
{4}
28 км н/о +23.0 +20.9 88 +30 +30 очень
душно
1016.6 1013.9
03 20.08 В 1-2
{4}
27 км н/о +22.7 +20.6 88 +30 +30 очень
душно
1016.5 1013.8
04 20.08 В 2-3
{4}
35 км н/о +22.4 +19.8 85 +28 +28 душно 1016.4 1013.7
05 20.08 В 2-3
{4}
27 км н/о +22.6 +20.5 88 +29 +29 очень
душно
1016.4 1013.7
06 20.08 В 2
{7}
35 км н/о +24.8 +21.1 80 +31 +31 очень
душно
1016.5 1013.9 +22.2 +27.0
07 20.08 В 3-4
{4}
40 км н/о +27.1 +21.4 71 +34 +34 очень
душно
1016.8 1014.2
08 20.08 В 3-4
{5}
45 км н/о +28.6 +20.1 60 +35 +35 очень
душно
1016.9 1014.3
09 20.08 В 2-4
{5}
45 км н/о +30.6 +19.0 50 +36 +36 очень
душно
1017.2 1014.6
10 20.08 В 2-4
{4}
19 км н/о +32.3 +18.5 44 +37 +37 очень
душно
1017.1 1014.5
11 20.08 СВ 3-5
{5}
60 км н/о +33.8 +14.3 31 +35 +35 очень
жарко
1016.8 1014.2
12 20.08 В 2-4
{4}
60 км н/о +34.5 +11.0 24 +34 +34 очень
жарко
1016.6 1014.0
13 20.08 СВ 2-3
{4}
60 км н/о +34.7 +11.8 25 +34 +34 очень
жарко
1016.3 1013.7
14 20.08 З 3-4
{5}
60 км н/о +33.4 +19.5 44 +39 +39 очень
душно
1016.4 1013.8
15 20.08 З 4-4
{9}
50 км н/о +32.3 +19.2 46 +38 +38 очень
душно
1016.4 1013.8
16 20.08 З 5-4
{7}
50 км н/о +30.9 +20.8 55 +38 +38 очень
душно
1016.5 1013.9
17 20.08 ЮЗ 3-3
{7}
50 км н/о +29.2 +20.1 58 +36 +36 очень
душно
1016.5 1013.9
18 20.08 ЮЗ 2-2
{3}
45 км н/о +27.1 +19.2 62 +33 +33 очень
душно
1016.8 1014.2 +24.9 +35.1
19 20.08 Ю 1-1
{2}
40 км н/о +23.8 +18.2 71 +28 +28 душно 1017.1 1014.4
20 20.08 СВ 1-2
{2}
35 км н/о +22.0 +17.6 76 +27 +27 душно 1017.0 1014.3
21 20.08 С 1-1
{2}
35 км н/о +20.4 +16.6 79 +25 +25 комфорт 1017.1 1014.4
22 20.08 СВ 1-2
{2}
35 км н/о +20.9 +16.5 76 +26 +26 душно 1017.2 1014.5
23 20.08 СВ 1-1
{1}
30 км н/о +19.1 +16.1 83 +22 +22 комфорт 1017.1 1014.4
00 21.08 В 1-1
{1}
28 км н/о +18.0 +15.3 84 +20 +20 1017.0 1014.3
01 21.08 СВ 1-1
{1}
27 км н/о +18.6 +15.7 83 +21 +21 комфорт 1016.9 1014.2
02 21.08 СВ 1-1
{1}
21 км н/о +17.9 +15.3 85 +20 +20 1016.8 1014.1
03 21.08 В 1-1
{1}
16 км н/о +17.2 +14.8 86 +19 +19 1016.9 1014.2
04 21.08 СВ 1-1
{1}
14 км н/о +17.1 +15.3 89 +19 +19 1017.2 1014.5
05 21.08 С 1-1
{2}
11 км н/о +16.3 +14.3 88 +18 +18 1017.3 1014.6
06 21.08 СВ 1
{2}
19 км н/о +21.6 +18.4 82 +26 +26 душно 1017.6 1014.9 +16.2 +27.0
07 21.08 ЮЗ 1-2
{2}
35 км н/о +26.0 +18.4 63 +31 +31 очень
душно
1017.8 1015.2
08 21.08 ЮЗ 1-2
{2}
29 км н/о +28.8 +19.7 58 +35 +35 очень
душно
1017.8 1015.2
09 21.08 Ю 2-4
{4}
55 км н/о +29.3 +20.2 58 +36 +36 очень
душно
1017.9 1015.3
10 21.08 Ю 3-4
{4}
19 км н/о +29.7 +20.0 56 +36 +36 очень
душно
1017.8 1015.2
11 21.08 Ю 3-4
{5}
45 км н/о +30.6 +20.2 54 +37 +37 очень
душно
1017.5 1014.9
12 21.08 Ю 3-4
{4}
19 км н/о +32.3 +17.4 41 +36 +36 очень
душно
1016.9 1014.3
13 21.08 Ю 3-4
{5}
17 км н/о +32.7 +19.2 45 +38 +38 очень
душно
1016.3 1013.7
14 21.08 Ю 3-4
{5}
35 км н/о +32.6 +18.4 43 +37 +37 очень
душно
1016.4 1013.8
15 21.08 ЮЗ 2-4
{5}
45 км н/о +33.6 +15.1 33 +35 +35 душно 1016.2 1013.6
16 21.08 З 2-4
{4}
40 км н/о +32.9 +13.0 30 +34 +34 очень
жарко
1016.1 1013.5
17 21.08 Ю 2-3
{3}
50 км н/о +29.7 +18.8 52 +35 +35 очень
душно
1016.1 1013.5
18 21.08 Ю 1-2
{3}
40 км н/о +26.6 +18.7 62 +32 +32 очень
душно
1016.5 1013.9 +21.7 +34.6
19 21.08 В 1-2
{2}
45 км н/о +25.5 +19.6 70 +31 +31 очень
душно
1017.0 1014.4
20 21.08 В 1-2
{2}
35 км н/о +24.7 +20.2 76 +30 +30 очень
душно
1017.5 1014.8
21 21.08 штиль 0
{2}
29 км н/о +21.7 +17.9 79 +26 +26 душно 1017.8 1015.1
22 21.08 СВ 1-1
{1}
30 км н/о +20.2 +17.0 82 +25 +25 комфорт 1017.9 1015.2
23 21.08 СВ 1-2
{2}
30 км н/о +21.4 +19.3 88 +26 +26 душно 1017.6 1014.9
00 22.08 В 1-2
{3}
28 км н/о +22.6 +19.4 82 +29 +29 очень
душно
1017.4 1014.7
01 22.08 В 2-3
{3}
28 км н/о +23.5 +19.6 79 +29 +29 душно 1017.2 1014.5
02 22.08 В 2-3
{4}
30 км н/о +23.6 +19.7 79 +29 +29 душно 1017.0 1014.3
03 22.08 В 2-3
{3}
28 км н/о +23.3 +20.2 83 +31 +31 очень
душно
1016.8 1014.1
04 22.08 В 2-3
{3}
27 км 10/10
[]
+23.4 +20.3 83 +31 +31 очень
душно
1016.9 1014.2
05 22.08 В 2-3
{3}
22 км 9/9
[]
+23.8 +20.9 84 +30 +30 очень
душно
1017.2 1014.5
06 22.08 В 2
{6}
22 км 9/0
[]
+25.4 +21.9 81 +33 +33 очень
душно
1017.6 1015.0 +20.0 +26.6
07 22.08 В 2-2
{3}
24 км 10/1 420 м
[]
+26.3 +22.2 78 +34 +36 очень
душно
1017.6 1015.0
08 22.08 СВ 2-3
{3}
35 км 8/8
[]
+29.4 +21.1 61 +37 +38 очень
душно
1017.7 1015.1
09 22.08 В 2-3
{3}
35 км 10/0
[]
+31.0 +18.4 47 +36 +36 очень
душно
1017.7 1015.1
10 22.08 В 1-3
{3}
18 км н/о +31.9 +17.8 43 +36 +36 очень
душно
1017.8 1015.2
11 22.08 СВ 2-4
{4}
19 км н/о +32.3 +19.5 47 +38 +38 очень
душно
1017.8 1015.2
12 22.08 В 2-4
{4}
45 км н/о +30.8 +20.1 53 +37 +37 очень
душно
1017.7 1015.1
13 22.08 В 2-3
{4}
30 км н/о +30.5 +20.4 55 +37 +37 очень
душно
1017.5 1014.9
14 22.08 В 2-4
{4}
15 км н/о +30.8 +20.4 54 +38 +38 очень
душно
1017.4 1014.8
15 22.08 В 2-3
{4}
45 км 9/0
[]
+30.1 +17.5 47 +34 +35 очень
душно
1017.6 1015.0
16 22.08 СВ 2-3
{4}
30 км н/о +29.3 +20.2 58 +36 +36 очень
душно
1017.0 1014.4
17 22.08 СВ 1 30 км 10/4 1080 м
[]
+28.7 +21.2 64 +36 +37 очень
душно
1016.9 1014.3
18 22.08 В 1
{5}
35 км 9/9 600 м
[]
+27.7 +21.3 68 +35 +35 очень
душно
1017.1 1014.5 +25.4 +32.6
19 22.08 СВ 1-2
{3}
26 км 10/10 720 м
[]
+26.8 +21.8 74 +34 +34 очень
душно
1017.5 1014.9
20 22.08 В 1-2
{3}
27 км 10/10
[]
+26.3 +21.5 75 +34 +34 очень
душно
1018.3 1015.7
21 22.08 СВ 1
{5}
17 км слаб. дождь 10/10 1000 м
[]
+25.3 +22.2 83 +33 +33 очень
душно
1018.7 1016.1 0.0
22 22.08 СВ 1-2
{3}
9000 м слаб. дождь 10/10
[]
+24.1 +22.2 89 +31 +31 очень
душно
1018.6 1015.9 0.4
23 22.08 В 2-3
{3}
8000 м 10/10
[]
+23.5 +21.8 90 +30 +30 очень
душно
1018.4 1015.7 0.4
00 23.08 СЗ 1-2
{3}
8000 м 9/0
[]
+23.1 +21.5 91 +31 +31 очень
душно
1018.3 1015.6 0.8
01 23.08 ЮВ 1-1
{2}
10 км 10/10
[]
+21.8 +19.9 89 +27 +27 душно 1017.7 1015.0
02 23.08 СЗ 1-1
{1}
8000 м 8/8
[]
+21.7 +20.2 91 +27 +27 душно 1017.7 1015.0
03 23.08 СЗ 2-2
{3}
5000 м н/о +20.8 +19.5 92 +26 +26 душно 1017.2 1014.5
04 23.08 С 1-1
{3}
7000 м н/о +19.9 +18.6 92 +24 +24 комфорт 1017.2 1014.5
05 23.08 СВ 1-2
{2}
6000 м н/о +19.1 +17.9 93 +22 +22 комфорт 1017.3 1014.6
06 23.08 З 1
{2}
16 км н/о +21.1 +19.6 91 +26 +26 душно 1018.0 1015.3 +18.9 +27.7
07 23.08 В 2-3
{3}
30 км н/о +26.0 +19.9 69 +32 +32 очень
душно
1018.0 1015.4
08 23.08 СВ 2-4
{4}
35 км н/о +28.2 +20.2 62 +35 +35 очень
душно
1018.3 1015.7
09 23.08 СВ 1-3
{4}
19 км н/о +28.9 +19.8 58 +35 +35 очень
душно
1018.5 1015.9
10 23.08 ЮВ 1 40 км 8/8 1260 м
[]
+29.8 +17.9 49 +34 +38 очень
душно
1018.6 1016.0
11 23.08 ЮЗ 1 50 км 9/9 1500 м
[]
+30.4 +17.5 46 +34 +36 очень
душно
1018.5 1015.9
12 23.08 СВ 3
{11}
28 км 10/10 600 м
[]
+27.9 +20.2 63 +34 +35 очень
душно
1018.1 1015.5
13 23.08 СВ 3-4
{5}
35 км н/о +29.8 +17.9 49 +34 +34 очень
душно
1017.7 1015.1
14 23.08 В 2-3
{4}
29 км 8/8 1500 м
[]
+31.1 +17.4 44 +35 +37 очень
душно
1017.4 1014.8

 

Местоположение метеостанции Фигари (Франция): широта 41.50 долгота 9.10 высота над уровнем моря 23 м.

В архиве по умолчанию представлена погода в Фигари за последнюю неделю. Архивные данные за месяц целиком и за предыдущие месяцы, начиная с января 2011 года, Вы можете получить, выбрав интересующий диапазон дат из раскрывающегося списка и нажав кнопку "Ввод!".


*Определитесь, кто Вы:
робот инопланетянин человек

Внимание! Время в таблицах - всемирное. Для получения местного времени необходимо прибавить поправку, которая равна 1 ч.

Смотрите также архив погоды в соседних городах и на ближайших метеорологических станциях:

Погода на Мысе Пертюзато (Франция) (16 км)
Погода в Аяччо (Франция) (53 км)
Погода в Соленцаре (Франция) (53 км)
Погода в Ла Парате (Франция) (61 км)
Погода в Ольвии (Италия) (75 км)
Погода в Алистро (Франция) (93 км)
Погода в Кальви (Франция) (117 км)
Погода в Альгеро (Италия) (119 км)
Погода в Бастии (Франция) (121 км)
Погода в Л’Иль-Русе (Франция) (127 км)

Пояснения к столбцам:

Ветер - указаны скорость ветра в м/с - средняя за 10 мин, порывы в срок и между сроками (в фигурных скобках) и направление, откуда дует ветер: С - северный, СВ - северо-восточный, В - восточный, ЮВ - юго-восточный, Ю - южный, ЮЗ - юго-западный, З - западный, СЗ - северо-западный.
Видимость - горизонтальная дальность видимости в метрах или километрах. При видимости от 1 до 10 км при отсутствии осадков обычно наблюдается дымка, при ухудшении видимости до 1 км и менее - туман. В сухую погоду видимость может ухудшаться дымом, пылью или мглою.
Явления - указаны атмосферные явления, наблюдавшиеся в срок или в последний час перед сроком; фигурными скобками обозначены явления, наблюдавшиеся между сроками (за 1-3 часа до срока); квадратными скобками обозначены град или гололедные отложения с указанием их диаметра в мм.
Облачность - указаны через наклонную черту общая и нижняя облачность в баллах и высота нижней границы облаков в метрах; квадратными скобками обозначены формы облаков: Ci - перистые, Cs - перисто-слоистые, Cc - перисто-кучевые, Ac - высококучевые, As - высокослоистые, Sc - слоисто-кучевые, Ns - слоисто-дождевые, Cu - кучевые, Cb - кучево-дождевые. Подробнее классификацию облаков см. в Атласе облаков (PDF).
T - Температура воздуха - температура, измеренная на высоте 2 м над землей.
Td - Температура точки росы - температура, при понижении до которой содержащийся в воздухе водяной пар достигнет насыщения.
f - Относительная влажность воздуха - влажноcть воздуха, измеренная на высоте 2 м над землей.
Te - Эффективная температура - температура, которую ощущает одетый по сезону человек в тени. Характеристика душности погоды. При расчете учитывается влияние влажности воздуха и скорости ветра на теплоощущения человека.
Tes - Эффективная температура на солнце - температура, которую ощущает человек, с поправкой на солнечный нагрев. Характеристика знойности погоды. Зависит от высоты солнца над горизонтом, облачности и скорости ветра. Ночью, в пасмурную погоду, а также при ветре 12 м/с и более поправка равна нулю.
P - Атмосферное давление - приведенное к уровню моря атмосферное давление.
Po - Атмосферное давление - измеренное на уровне метеостанции атмосферное давление.
Tmin - Минимальная температура - минимум температуры воздуха на высоте 2 м над землей.
Tmax - Максимальная температура - максимум температуры воздуха на высоте 2 м над землей.
R - Количество осадков - Количество выпавших осадков за период времени, мм. При наведении курсора мыши на число - период времени, за который выпало указанное количество осадков.
R24 - Количество осадков - Количество выпавших осадков за 24 часа, мм.
S - Снежный покров - Высота снежного покрова, см. При наведении курсора мыши на число - состояние снежного покрова и степень покрытия местности в баллах.